User: anonymous   Login
Location: Viterbo
(42.4170°N, 12.1000°E)
Time: 15:20:14
(UTC+01:00)
Language:

ITAMSAT 1 - Orbit

View from above orbital plane
View from above orbital plane
View from above satellite
View from above satellite

Ground track
Ground track

The orbit data is extracted from the following two-line orbital elements,

1 22826U 93061D   20021.97613861 -.00000005  00000-0  15936-4 0  9999
2 22826  98.9129  20.7105 0009973  76.4000 283.8292 14.30410802373213
Epoch (UTC): 21 January 2020 23:25:38
Eccentricity: 0.0009973
inclination: 98.9129°
perigee height: 783 km
apogee height: 797 km
right ascension of ascending node: 20.7105°
argument of perigee: 76.4000°
revolutions per day: 14.30410802
mean anomaly at epoch: 283.8292°
orbit number at epoch: 37321

The dashed part of the orbit path shows where the satellite is in the earth's shadow,  

DLR